EW9994 Weather Reports


time (UTC)temp
C
wind
direction
speed
KPH
gust
KPH
rain 1hr
cm
rain 24hr
cm
rain mn
cm
humidity
%
barometer
mb
20260901200906 21 34 4.8 9.7 0.00 0.00 0.00 67 1018.6
20260901200407 21 34 3.2 12.9 0.00 0.00 0.00 68 1018.5
20260901194907 21 25 9.7 19.3 0.00 0.00 0.00 67 1018.4
20260901193907 21 29 14.5 19.3 0.00 0.00 0.00 67 1018.3
20260901191907 22 24 11.3 19.3 0.00 0.00 0.00 67 1018.2
20260901191407 22 42 9.7 19.3 0.00 0.00 0.00 67 1018.0
20260901190907 22 46 4.8 11.3 0.00 0.00 0.00 67 1017.9
20260901184907 22 40 9.7 16.1 0.00 0.00 0.00 67 1017.5
20260901184407 22 15 8.0 12.9 0.00 0.00 0.00 67 1017.3
20260901181907 23 19 9.7 19.3 0.00 0.00 0.00 69 1017.2
20260901181406 23 25 8.0 14.5 0.00 0.00 0.00 69 1017.3
20260901180907 23 34 8.0 14.5 0.00 0.00 0.00 69 1017.3
20260901180406 23 24 9.7 16.1 0.00 0.00 0.00 69 1017.4
20260901174906 24 26 9.7 14.5 0.00 0.00 0.00 67 1017.2
20260901173406 26 33 9.7 14.5 0.00 0.00 0.00 62 1017.2
20260901171907 28 212 3.2 4.8 0.00 0.00 0.00 51 1017.0
20260901171406 28 212 0.0 3.2 0.00 0.00 0.00 52 1016.9
20260901170412 28 212 3.2 12.9 0.00 0.00 0.00 54 1016.8
20260901164407 28 225 4.8 9.7 0.00 0.00 0.00 52 1016.9
20260901163907 28 216 8.0 12.9 0.00 0.00 0.00 51 1016.9
20260901163406 28 209 8.0 14.5 0.00 0.00 0.00 50 1016.8
20260901161907 29 205 8.0 16.1 0.00 0.00 0.00 52 1016.8
20260901160907 29 194 9.7 19.3 0.00 0.00 0.00 51 1016.8
20260901160409 30 199 8.0 16.1 0.00 0.00 0.00 51 1016.8
20260901154407 30 233 11.3 19.3 0.00 0.00 0.00 52 1016.9
20260901153907 30 241 9.7 19.3 0.00 0.00 0.00 53 1016.9
20260901153406 30 235 9.7 20.9 0.00 0.00 0.00 53 1016.9
20260901151407 30 218 11.3 16.1 0.00 0.00 0.00 57 1016.9
20260901143906 30 225 11.3 16.1 0.00 0.00 0.00 51 1016.9
20260901143406 30 178 8.0 19.3 0.00 0.00 0.00 52 1016.9
20260901141906 31 256 9.7 14.5 0.00 0.00 0.00 51 1016.8
20260901141406 30 238 11.3 20.9 0.00 0.00 0.00 50 1016.9
20260901140907 31 213 4.8 19.3 0.00 0.00 0.00 50 1016.9
20260901140407 31 247 4.8 16.1 0.00 0.00 0.00 49 1016.9
20260901134906 30 214 11.3 20.9 0.00 0.00 0.00 50 1017.0
20260901133906 30 277 9.7 14.5 0.00 0.00 0.00 52 1017.2
20260901131907 30 239 9.7 16.1 0.00 0.00 0.00 53 1017.3
20260901131407 30 197 6.4 11.3 0.00 0.00 0.00 56 1017.3
20260901124907 30 252 1.6 4.8 0.00 0.00 0.00 58 1017.3
20260901124406 30 126 4.8 8.0 0.00 0.00 0.00 57 1017.3
20260901123406 30 154 1.6 11.3 0.00 0.00 0.00 57 1017.4
20260901120407 30 192 8.0 12.9 0.00 0.00 0.00 59 1017.5
20260901113906 28 216 4.8 8.0 0.00 0.00 0.00 61 1017.7
20260901113407 28 212 3.2 11.3 0.00 0.00 0.00 62 1017.7
20260901111906 28 243 4.8 9.7 0.00 0.00 0.00 63 1017.8
20260901110906 28 224 1.6 3.2 0.00 0.00 0.00 63 1017.8
20260901104906 28 197 6.4 11.3 0.00 0.00 0.00 66 1017.9
20260901104406 28 230 4.8 9.7 0.00 0.00 0.00 67 1017.9
20260901103906 27 252 0.0 3.2 0.00 0.00 0.00 70 1017.9
20260901103406 27 252 3.2 8.0 0.00 0.00 0.00 72 1018.0
20260901101406 27 249 4.8 11.3 0.00 0.00 0.00 71 1018.0
20260901100906 27 228 6.4 14.5 0.00 0.00 0.00 71 1018.0
20260901094407 27 219 4.8 11.3 0.00 0.00 0.00 73 1018.1
20260901093407 27 203 3.2 9.7 0.00 0.00 0.00 73 1018.1
20260901090906 26 195 6.4 9.7 0.00 0.00 0.00 74 1018.2
20260901090409 26 190 8.0 16.1 0.00 0.00 0.00 76 1018.2
20260901084906 26 218 6.4 14.5 0.00 0.00 0.00 77 1018.1
20260901084406 26 241 4.8 8.0 0.00 0.00 0.00 77 1018.1
20260901083907 26 211 4.8 8.0 0.00 0.00 0.00 77 1018.1
20260901080906 25 214 6.4 11.3 0.00 0.00 0.00 78 1018.0
20260901074906 25 49 1.6 1.6 0.00 0.00 0.00 81 1017.8
20260901074406 25 49 3.2 8.0 0.00 0.00 0.00 80 1017.8
20260901073906 24 47 3.2 4.8 0.00 0.00 0.00 80 1017.7
20260901070406 23 25 0.0 0.0 0.00 0.00 0.00 82 1017.6
20260901064906 22 25 0.0 0.0 0.00 0.00 0.00 79 1017.8
20260901063906 21 23 0.0 0.0 0.00 0.00 0.00 76 1017.8
20260901061906 21 23 0.0 0.0 0.00 0.00 0.00 78 1017.8
20260901061406 21 23 0.0 0.0 0.00 0.00 0.00 78 1017.8
20260901060406 21 23 0.0 4.8 0.00 0.00 0.00 78 1017.8
20260901054906 20 23 3.2 8.0 0.00 0.00 0.00 78 1017.7
20260901053906 20 23 4.8 8.0 0.00 0.00 0.00 78 1017.7
20260901053406 20 23 0.0 4.8 0.00 0.00 0.00 78 1017.7
20260901051907 20 23 0.0 0.0 0.00 0.00 0.00 78 1017.6
20260901051406 20 23 1.6 11.3 0.00 0.00 0.00 79 1017.6
20260901050906 20 23 6.4 12.9 0.00 0.00 0.00 79 1017.6
20260901043906 20 23 4.8 9.7 0.00 0.00 0.00 79 1017.4
20260901043405 20 23 4.8 9.7 0.00 0.00 0.00 79 1017.4
20260901041906 20 23 4.8 9.7 0.00 0.00 0.00 80 1017.4
20260901041406 20 23 4.8 11.3 0.00 0.00 0.00 80 1017.4
20260901034906 20 26 8.0 12.9 0.00 0.00 0.00 81 1017.3
20260901034406 20 25 4.8 9.7 0.00 0.00 0.00 81 1017.4
20260901033406 20 25 8.0 12.9 0.00 0.00 0.00 81 1017.4
20260901031406 20 23 3.2 9.7 0.00 0.00 0.00 79 1017.5
20260901030906 20 23 8.0 11.3 0.00 0.00 0.00 79 1017.5
20260901023905 20 24 8.0 9.7 0.00 0.00 0.00 77 1017.5
20260901020405 20 25 4.8 9.7 0.00 0.00 0.00 74 1017.3
20260901014905 20 25 0.0 0.0 0.00 0.00 0.00 74 1017.2
20260901014406 20 25 0.0 1.6 0.00 0.00 0.00 73 1017.1
20260901013905 20 24 0.0 1.6 0.00 0.00 0.00 74 1017.2
20260901013405 20 24 0.0 1.6 0.00 0.00 0.00 76 1017.2
20260901010905 21 24 4.8 8.0 0.00 0.00 0.00 78 1017.2
20260901010406 21 24 1.6 4.8 0.00 0.00 0.00 77 1017.3
20260901003405 21 24 0.0 0.0 0.00 0.00 0.00 78 1017.4
20260901001905 21 24 0.0 0.0 0.00 0.00 0.00 79 1017.4
20260831234906 21 24 0.0 3.2 0.00 0.00 0.00 81 1017.5
20260831234406 21 23 0.0 4.8 0.00 0.00 0.00 81 1017.5
20260831233905 21 24 0.0 1.6 0.00 0.00 0.00 81 1017.5
20260831233406 21 23 1.6 4.8 0.00 0.00 0.00 81 1017.5
20260831231910 21 24 1.6 4.8 0.00 0.00 0.00 81 1017.5
20260831230905 21 23 4.8 11.3 0.00 0.00 0.00 80 1017.4
20260831223405 21 23 0.0 12.9 0.00 0.00 0.00 82 1017.1
20260831221405 21 23 3.2 9.7 0.00 0.00 0.00 82 1017.0
20260831214905 21 23 3.2 12.9 0.00 0.00 0.00 82 1016.9
20260831213406 21 23 8.0 12.9 0.00 0.00 0.00 82 1016.8
20260831211908 21 23 8.0 12.9 0.00 0.00 0.00 82 1016.7
20260831210905 21 23 8.0 12.9 0.00 0.00 0.00 82 1016.7
20260831210405 21 23 8.0 14.5 0.00 0.00 0.00 82 1016.6
20260831204905 21 23 9.7 14.5 0.00 0.00 0.00 82 1016.5
20260831203408 21 34 11.3 16.1 0.00 0.00 0.00 82 1016.4
20260831201906 21 33 8.0 14.5 0.00 0.00 0.00 82 1016.3